Location: Asni�res
(49.1337°N, 2.3555°E)
Time: 07:32:13
(UTC+00:00)

Resurs 01 Rocket - Pass Details

Date: 16 October 2021
Orbit: 635 x 643 km, 97.9° (Epoch: 02 December)

Event Time Altitude Azimuth Distance (km) Brightness Sun altitude
Exits shadow 20:03:53 17° 357° (N) 1,609 3.9 -30.6°
Drops below altitude 10° 20:04:58 10° 354° (N) 2,037 4.5 -30.8°
Sets 20:07:12 0° 350° (N) 2,952 5.5 -31.1°
